Mombasa, Kenya

7:59 PM EAT on December 06, 2016 (GMT +0300)
Mombasa

Weather History for HKMO - October, 2013

Change the Weather History Date:

Thursday, October 24, 2013

  Actual Average Record
Temperature  
Mean Temperature 80 °F -  
Max Temperature 84 °F 83 °F 87 °F (1996)
Min Temperature 75 °F 71 °F 35 °F (1997)
Cooling Degree Days 14    
Growing Degree Days 30 (Base 50)    
Moisture  
Dew Point 73 °F    
Average Humidity 80    
Maximum Humidity 94    
Minimum Humidity 66    
Precipitation  
Precipitation 0.00 in - - ()
Sea Level Pressure  
Sea Level Pressure 29.95 in    
Wind  
Wind Speed 7 mph ()    
Max Wind Speed 17 mph    
Max Gust Speed -    
Visibility 6.2 miles    
Events Rain    
Averages and records for this station are not official NWS values.
T = Trace of Precipitation, MM = Missing Value Source: Averaged Metar Reports

Daily Weather History Graph

Daily Weather History Graph

Search for Another Location

Airport or City:

Trip Planner

Search our weather history database for the weather conditions in past years. The results will help you decide how hot, cold, wet, or windy it might be!

Date:

Astronomy

Oct. 24, 2013 Rise Set
Actual Time 5:58 AM EAT 6:12 PM EAT
Civil Twilight 5:37 AM EAT 6:33 PM EAT
Nautical Twilight 5:13 AM EAT 6:58 PM EAT
Astronomical Twilight 4:48 AM EAT 7:23 PM EAT
Moon 10:47 PM EAT (10/24) 10:11 AM EAT (10/24)
Length of Visible Light 12h 55m
Length of Day
12h 13m
Waning Gibbous, 74% of the Moon is Illuminated
Oct 24
Waning Gibbous
Oct 27
Last Quarter
Nov 3
New
Nov 10
First Quarter
Nov 17
Full

Hourly Weather History & Observations

Time (EAT) Temp. Heat Index Dew Point Humidity Pressure Visibility Wind Dir Wind Speed Gust Speed Precip Events Conditions
12:00 AM 78.8 °F - 75.2 °F 89% 29.92 in 6.2 mi ESE 6.9 mph - N/A   Mostly Cloudy
12:30 AM 78.8 °F - 75.2 °F 89% 29.92 in 6.2 mi SSE 3.5 mph - N/A   Mostly Cloudy
1:30 AM 77.0 °F - 75.2 °F 94% 29.92 in 6.2 mi Calm Calm - N/A   Scattered Clouds
6:00 AM 75.2 °F - 73.4 °F 94% 29.95 in 6.2 mi Calm Calm - N/A   Mostly Cloudy
7:00 AM 75.2 °F - 73.4 °F 94% 29.98 in 6.2 mi WSW 4.6 mph - N/A   Mostly Cloudy
8:00 AM 77.0 °F - 75.2 °F 94% 30.01 in 6.2 mi WSW 9.2 mph - N/A Rain Light Rain Showers
9:00 AM 77.0 °F - 75.2 °F 94% 30.01 in 6.2 mi SSW 11.5 mph - N/A   Mostly Cloudy
10:00 AM 80.6 °F 85.4 °F 73.4 °F 79% 30.01 in 6.2 mi SSW 13.8 mph - N/A Rain Rain Showers
11:00 AM 84.2 °F 90.9 °F 73.4 °F 70% 30.01 in 6.2 mi South 10.4 mph - N/A   Mostly Cloudy
12:00 PM 84.2 °F 89.6 °F 71.6 °F 66% 29.98 in 6.2 mi South 12.7 mph - N/A   Mostly Cloudy
1:00 PM 84.2 °F 89.6 °F 71.6 °F 66% 29.95 in 6.2 mi South 13.8 mph - N/A   Scattered Clouds
2:00 PM 82.4 °F 87.2 °F 71.6 °F 70% 29.92 in 6.2 mi SSE 12.7 mph - N/A   Mostly Cloudy
3:00 PM 82.4 °F 86.3 °F 69.8 °F 66% 29.92 in 6.2 mi SSE 12.7 mph - N/A   Mostly Cloudy
4:00 PM 84.2 °F 89.6 °F 71.6 °F 66% 29.92 in 6.2 mi ESE 17.3 mph - N/A   Scattered Clouds
5:00 PM 82.4 °F 87.2 °F 71.6 °F 70% 29.92 in 6.2 mi SSE 5.8 mph - N/A   Scattered Clouds
6:00 PM 80.6 °F 84.6 °F 71.6 °F 74% 29.92 in 6.2 mi SSE 16.1 mph - N/A   Partly Cloudy
7:00 PM 78.8 °F - 71.6 °F 78% 29.92 in 6.2 mi SSE 5.8 mph - N/A   Partly Cloudy
8:00 PM 78.8 °F - 71.6 °F 78% 29.95 in 6.2 mi South 6.9 mph - N/A   Partly Cloudy
9:00 PM 77.0 °F - 71.6 °F 83% 29.95 in 6.2 mi SSE 11.5 mph - N/A   Partly Cloudy
10:00 PM 77.0 °F - 69.8 °F 78% 29.95 in 6.2 mi South 10.4 mph - N/A   Partly Cloudy
11:00 PM 77.0 °F - 71.6 °F 83% 29.95 in 6.2 mi SSW 6.9 mph - N/A   Partly Cloudy